Temp
-10 -11 -11 -10 -10 -10 -10 -10 -10 -10 -10 -10 -10 -9 -9 -9 -9 -9 -9 -9 -9 -9 -9 -9 -9 -10 -10 -10 -10 -10 -9 -8 -9 -10 -10 -11 -12 -12 -13 -12 -12 -13 -12 -11 -11
-11 -11 -11 -11 -10 -10 -10 -10 -10 -10 -10 -10 -10 -10 -10 -9 -10 -9 -9 -9 -9 -9 -9 -9 -9 -10 -9 -10 -10 -10 -9 -10 -11 -10 -10 -11 -12 -12 -12 -12 -13 -13 -12 -12 -11
-11 -11 -11 -11 -11 -11 -11 -11 -11 -11 -11 -11 -10 -10 -10 -10 -10 -10 -10 -10 -10 -9 -10 -10 -10 -10 -10 -10 -11 -11 -10 -11 -11 -12 -11 -11 -11 -12 -12 -11 -12 -13 -13 -12 -12
-12 -11 -11 -11 -11 -11 -11 -11 -11 -11 -11 -11 -11 -11 -10 -10 -10 -10 -11 -11 -10 -11 -11 -11 -11 -11 -11 -12 -13 -12 -12 -12 -12 -12 -12 -12 -12 -12 -12 -11 -11 -14 -13 -12 -12
-12 -12 -12 -11 -11 -11 -12 -12 -11 -11 -11 -11 -11 -11 -11 -11 -11 -11 -10 -10 -11 -11 -11 -12 -12 -12 -12 -13 -14 -13 -13 -13 -13 -13 -13 -13 -13 -12 -12 -11 -12 -12 -12 -12 -12
-13 -13 -12 -12 -12 -12 -12 -12 -12 -12 -12 -12 -12 -12 -12 -12 -12 -12 -12 -12 -12 -12 -12 -12 -13 -13 -13 -13 -14 -14 -14 -13 -14 -14 -13 -14 -13 -14 -12 -13 -13 -12 -12 -12 -11
-13 -13 -13 -12 -12 -12 -12 -12 -13 -13 -12 -12 -12 -12 -12 -12 -12 -12 -12 -13 -13 -13 -13 -13 -14 -14 -14 -14 -14 -14 -15 -15 -14 -15 -15 -15 -14 -13 -14 -14 -13 -13 -13 -13 -13
-13 -13 -13 -13 -13 -13 -13 -13 -13 -13 -14 -14 -13 -13 -13 -13 -14 -13 -13 -14 -14 -14 -14 -14 -14 -14 -15 -15 -14 -15 -16 -16 -15 -16 -16 -16 -15 -14 -13 -15 -15 -14 -14 -13 -13
-13 -13 -13 -13 -13 -13 -13 -14 -14 -14 -14 -14 -13 -13 -14 -14 -14 -14 -14 -15 -14 -14 -15 -15 -15 -15 -16 -16 -15 -16 -16 -17 -15 -16 -16 -17 -16 -15 -15 -16 -15 -14 -14 -14 -14
-13 -14 -13 -13 -14 -14 -14 -14 -14 -14 -14 -14 -14 -13 -14 -15 -15 -15 -15 -15 -15 -15 -15 -16 -16 -16 -16 -17 -16 -16 -17 -16 -16 -16 -17 -17 -17 -17 -16 -17 -16 -16 -15 -14 -14
-14 -14 -14 -14 -14 -14 -14 -14 -14 -14 -15 -14 -14 -14 -15 -15 -15 -15 -16 -16 -16 -15 -16 -16 -16 -17 -17 -17 -17 -17 -17 -16 -16 -16 -17 -17 -17 -17 -18 -18 -17 -17 -15 -15 -14
-14 -14 -14 -14 -15 -15 -15 -15 -15 -15 -15 -15 -15 -15 -16 -16 -16 -16 -16 -16 -16 -17 -17 -17 -17 -18 -18 -18 -18 -18 -17 -17 -17 -16 -18 -17 -17 -17 -17 -18 -16 -15 -15 -15 -15
-14 -14 -14 -15 -15 -15 -15 -15 -15 -15 -14 -15 -16 -16 -16 -16 -16 -17 -16 -17 -17 -18 -18 -17 -18 -18 -18 -17 -18 -18 -18 -18 -18 -17 -17 -18 -18 -16 -16 -17 -17 -16 -15 -15 -13
-14 -15 -15 -15 -15 -15 -15 -16 -16 -16 -16 -15 -16 -17 -17 -17 -17 -17 -18 -18 -18 -18 -18 -18 -18 -18 -18 -18 -18 -18 -18 -19 -19 -18 -18 -19 -20 -17 -16 -16 -17 -17 -16 -15 -14
-15 -15 -15 -15 -16 -16 -16 -16 -17 -17 -17 -16 -16 -17 -17 -17 -18 -18 -18 -18 -18 -18 -18 -18 -19 -19 -19 -18 -19 -20 -22 -23 -23 -22 -21 -20 -21 -16 -16 -16 -16 -16 -17 -16 -17
-15 -15 -16 -15 -16 -16 -16 -17 -17 -18 -17 -17 -17 -18 -18 -18 -18 -18 -19 -19 -19 -19 -19 -19 -19 -21 -20 -21 -24 -24 -24 -24 -24 -24 -24 -20 -21 -16 -16 -16 -16 -17 -17 -17 -17
-16 -16 -16 -16 -16 -16 -17 -17 -18 -18 -18 -18 -18 -18 -19 -19 -19 -19 -20 -20 -20 -19 -19 -19 -19 -20 -23 -25 -24 -24 -24 -24 -23 -24 -23 -22 -22 -18 -17 -17 -17 -18 -19 -18 -17
-16 -16 -16 -16 -16 -17 -17 -18 -18 -18 -18 -19 -19 -19 -19 -19 -20 -20 -20 -20 -20 -20 -20 -20 -18 -20 -24 -25 -23 -22 -23 -23 -23 -23 -23 -24 -22 -18 -18 -17 -17 -18 -18 -18 -17
-16 -16 -16 -16 -17 -17 -17 -18 -19 -18 -19 -20 -20 -20 -20 -20 -20 -20 -20 -20 -21 -21 -21 -20 -20 -23 -24 -24 -23 -22 -23 -23 -24 -23 -24 -24 -22 -21 -20 -18 -18 -18 -17 -18 -17
-16 -17 -17 -17 -17 -17 -17 -18 -18 -19 -20 -20 -20 -20 -20 -21 -21 -21 -21 -21 -21 -21 -21 -21 -20 -23 -23 -23 -23 -23 -23 -23 -23 -23 -23 -23 -21 -20 -19 -19 -18 -19 -17 -16 -17
-17 -17 -17 -17 -17 -17 -18 -18 -19 -20 -20 -20 -20 -20 -21 -21 -21 -21 -21 -21 -21 -21 -22 -22 -23 -22 -23 -23 -23 -23 -23 -22 -23 -23 -23 -23 -20 -20 -20 -19 -19 -18 -17 -16 -16
-18 -18 -18 -18 -18 -18 -19 -18 -20 -20 -20 -20 -20 -21 -21 -21 -21 -21 -22 -22 -22 -22 -22 -23 -23 -22 -22 -23 -23 -23 -23 -22 -23 -22 -23 -23 -19 -20 -19 -19 -19 -19 -18 -17 -17
-18 -18 -19 -19 -19 -19 -19 -19 -20 -20 -21 -21 -21 -21 -21 -22 -21 -22 -22 -22 -22 -22 -22 -23 -23 -23 -22 -23 -23 -23 -23 -23 -23 -23 -23 -22 -20 -20 -20 -19 -18 -18 -16 -16 -16
-18 -18 -19 -19 -20 -20 -20 -21 -21 -21 -21 -21 -21 -21 -22 -22 -22 -22 -22 -22 -23 -23 -24 -24 -24 -24 -23 -22 -22 -22 -22 -22 -23 -23 -23 -21 -22 -21 -21 -20 -18 -17 -17 -17 -17
-19 -19 -19 -20 -20 -21 -21 -22 -21 -22 -21 -21 -21 -22 -22 -22 -22 -22 -22 -23 -23 -23 -25 -25 -24 -24 -24 -23 -22 -22 -22 -22 -22 -22 -22 -22 -22 -21 -20 -19 -18 -17 -16 -16 -16
-20 -20 -20 -21 -22 -22 -22 -22 -22 -21 -22 -22 -22 -22 -22 -22 -22 -23 -23 -23 -23 -24 -25 -26 -24 -24 -24 -23 -23 -22 -22 -22 -21 -22 -21 -21 -22 -21 -20 -20 -20 -19 -17 -16 -17
-21 -21 -22 -22 -22 -23 -23 -22 -22 -22 -22 -22 -22 -22 -23 -23 -23 -23 -24 -24 -23 -24 -26 -25 -25 -25 -24 -24 -23 -22 -22 -22 -22 -21 -22 -22 -20 -20 -20 -20 -21 -20 -18 -18 -17
Height
5787 5787 5787 5788 5787 5787 5785 5785 5785 5785 5785 5785 5785 5785 5784 5784 5785 5785 5785 5784 5783 5783 5782 5782 5781 5780 5780 5780 5779 5779 5781 5784 5786 5788 5792 5795 5798 5796 5794 5796 5797 5798 5801 5800 5801
5778 5780 5780 5780 5780 5779 5778 5777 5777 5778 5778 5778 5776 5776 5776 5777 5777 5776 5776 5775 5774 5773 5774 5773 5772 5772 5771 5770 5769 5768 5772 5772 5776 5777 5779 5782 5784 5788 5785 5785 5786 5791 5793 5793 5792
5770 5770 5771 5771 5771 5771 5771 5770 5770 5770 5770 5770 5769 5769 5769 5769 5771 5769 5767 5766 5766 5765 5763 5763 5763 5762 5762 5760 5760 5760 5762 5761 5764 5765 5766 5768 5771 5776 5776 5775 5779 5783 5786 5784 5784
5761 5761 5762 5763 5762 5763 5763 5763 5763 5762 5762 5762 5761 5761 5760 5760 5763 5759 5759 5757 5756 5756 5756 5755 5754 5753 5752 5750 5750 5750 5750 5750 5754 5753 5753 5757 5758 5758 5762 5772 5768 5769 5774 5776 5774
5753 5753 5753 5753 5753 5753 5754 5755 5755 5754 5754 5754 5754 5753 5753 5753 5753 5752 5749 5748 5747 5747 5746 5745 5745 5743 5741 5740 5738 5738 5739 5740 5740 5739 5740 5742 5744 5746 5749 5759 5756 5756 5759 5765 5766
5743 5743 5744 5745 5744 5745 5746 5746 5746 5745 5745 5745 5745 5745 5745 5745 5745 5743 5742 5741 5740 5739 5738 5736 5734 5731 5731 5730 5728 5728 5727 5729 5729 5730 5727 5725 5732 5734 5746 5738 5741 5749 5750 5752 5757
5734 5733 5733 5734 5735 5735 5736 5736 5735 5736 5736 5736 5736 5736 5736 5737 5736 5735 5734 5733 5732 5732 5730 5727 5724 5721 5719 5719 5718 5717 5714 5714 5720 5718 5714 5714 5711 5721 5731 5728 5729 5732 5740 5742 5746
5723 5722 5722 5723 5723 5724 5725 5726 5727 5727 5727 5728 5729 5729 5728 5728 5727 5727 5726 5725 5725 5723 5723 5720 5715 5713 5711 5711 5713 5704 5702 5702 5711 5704 5703 5700 5694 5709 5715 5710 5714 5720 5725 5732 5737
5714 5713 5713 5714 5714 5716 5717 5718 5719 5719 5719 5719 5720 5721 5721 5720 5719 5719 5719 5718 5717 5716 5714 5711 5707 5705 5703 5700 5700 5696 5691 5690 5693 5697 5692 5688 5682 5692 5694 5696 5696 5705 5710 5717 5722
5704 5704 5704 5705 5706 5707 5708 5709 5709 5710 5710 5711 5711 5714 5712 5712 5711 5711 5711 5709 5709 5708 5708 5703 5697 5696 5695 5688 5687 5683 5677 5679 5679 5690 5677 5673 5669 5673 5675 5680 5679 5688 5697 5702 5706
5694 5694 5695 5696 5697 5698 5699 5700 5702 5703 5701 5702 5702 5703 5703 5702 5702 5702 5702 5700 5700 5699 5698 5694 5689 5683 5682 5678 5674 5669 5665 5663 5670 5674 5660 5658 5657 5660 5664 5666 5667 5670 5684 5690 5696
5682 5683 5684 5686 5687 5689 5690 5691 5691 5692 5694 5692 5693 5693 5694 5693 5693 5693 5694 5692 5690 5689 5687 5684 5678 5672 5669 5669 5663 5658 5650 5651 5649 5653 5643 5642 5641 5647 5652 5658 5658 5663 5666 5674 5684
5669 5671 5673 5676 5678 5680 5681 5681 5682 5683 5684 5685 5684 5684 5685 5686 5685 5685 5685 5683 5681 5678 5675 5672 5668 5662 5656 5657 5646 5642 5633 5626 5624 5631 5626 5626 5624 5635 5642 5646 5649 5652 5659 5663 5670
5657 5659 5662 5666 5670 5671 5670 5671 5673 5673 5675 5676 5675 5677 5677 5677 5677 5676 5676 5675 5671 5668 5663 5660 5652 5648 5644 5635 5625 5614 5613 5604 5600 5604 5600 5613 5603 5617 5632 5636 5638 5643 5650 5658 5663
5647 5649 5652 5656 5660 5662 5662 5663 5663 5665 5667 5669 5669 5668 5669 5669 5668 5666 5665 5662 5659 5655 5653 5649 5640 5632 5625 5615 5603 5592 5589 5583 5581 5580 5582 5587 5592 5609 5620 5625 5632 5634 5638 5648 5654
5636 5640 5644 5648 5651 5653 5653 5654 5656 5659 5658 5660 5662 5661 5660 5659 5657 5654 5653 5651 5649 5646 5641 5637 5627 5614 5604 5596 5585 5582 5574 5572 5568 5565 5560 5571 5583 5594 5607 5617 5623 5626 5630 5634 5637
5626 5629 5635 5639 5642 5644 5646 5646 5649 5650 5652 5653 5655 5652 5651 5649 5647 5645 5643 5641 5638 5635 5631 5629 5617 5604 5590 5584 5584 5576 5570 5561 5557 5556 5547 5563 5571 5579 5596 5608 5616 5619 5617 5622 5629
5615 5620 5625 5630 5633 5636 5637 5639 5640 5640 5642 5645 5645 5644 5644 5642 5640 5638 5636 5633 5627 5622 5616 5609 5608 5593 5586 5580 5576 5572 5567 5561 5552 5550 5550 5558 5560 5572 5586 5598 5607 5611 5613 5616 5621
5606 5610 5615 5620 5623 5626 5629 5630 5632 5632 5635 5635 5635 5634 5634 5633 5634 5631 5628 5625 5618 5611 5606 5596 5596 5586 5580 5577 5573 5564 5563 5560 5552 5549 5546 5549 5556 5565 5582 5595 5600 5604 5607 5611 5615
5595 5600 5604 5609 5613 5617 5620 5621 5622 5625 5626 5626 5627 5628 5627 5626 5626 5624 5621 5617 5611 5604 5595 5589 5583 5581 5581 5578 5573 5565 5562 5559 5554 5550 5546 5550 5556 5568 5576 5586 5596 5595 5600 5606 5611
5585 5588 5593 5598 5603 5608 5610 5612 5614 5617 5618 5619 5619 5620 5620 5621 5619 5617 5614 5609 5603 5597 5589 5580 5576 5579 5576 5574 5569 5566 5561 5557 5557 5552 5551 5553 5558 5565 5571 5579 5586 5591 5596 5603 5608
5574 5577 5581 5587 5594 5596 5600 5604 5607 5609 5611 5611 5611 5612 5613 5613 5612 5609 5606 5600 5594 5588 5583 5575 5571 5570 5574 5573 5566 5564 5559 5556 5554 5553 5551 5557 5559 5566 5570 5574 5578 5586 5592 5595 5597
5565 5567 5570 5578 5583 5587 5591 5596 5598 5600 5603 5603 5604 5605 5606 5606 5606 5603 5599 5594 5586 5580 5574 5570 5568 5566 5570 5571 5564 5562 5559 5555 5553 5552 5554 5552 5560 5563 5561 5565 5576 5579 5583 5585 5589
5556 5559 5564 5569 5574 5579 5583 5588 5591 5593 5595 5595 5596 5598 5599 5599 5597 5596 5593 5588 5581 5574 5568 5563 5565 5565 5566 5566 5563 5560 5557 5553 5549 5548 5551 5547 5551 5551 5555 5559 5568 5573 5576 5580 5583
5547 5551 5557 5562 5566 5571 5576 5580 5583 5586 5586 5587 5589 5591 5592 5591 5590 5589 5585 5581 5575 5568 5564 5560 5561 5561 5563 5561 5560 5557 5554 5550 5545 5548 5549 5550 5550 5550 5555 5558 5561 5567 5573 5567 5575
5538 5546 5551 5556 5560 5564 5568 5572 5575 5578 5580 5581 5583 5585 5585 5585 5584 5581 5577 5572 5568 5562 5559 5557 5557 5558 5562 5558 5557 5558 5555 5549 5542 5543 5547 5547 5549 5550 5553 5557 5558 5557 5563 5563 5567
5531 5538 5543 5548 5553 5558 5563 5565 5568 5570 5573 5575 5577 5578 5579 5578 5577 5573 5569 5564 5560 5557 5556 5552 5553 5554 5558 5555 5556 5555 5549 5546 5543 5542 5547 5549 5548 5550 5551 5551 5554 5557 5560 5565 5566
Wind_Speed
38 37 36 36 39 37 35 35 35 36 36 34 33 32 34 36 37 37 36 35 35 37 38 35 35 38 39 41 44 46 48 46 46 44 39 34 32 35 37 45 48 48 41 46 45
40 40 38 36 37 39 39 37 35 35 35 35 33 32 33 35 36 35 37 37 36 36 37 37 37 37 38 39 43 45 45 47 45 45 45 40 38 42 43 47 49 46 44 41 47
44 41 40 37 37 37 38 36 36 35 34 34 33 34 36 37 37 36 37 37 38 40 39 39 39 39 41 42 42 44 46 46 47 48 49 48 47 43 51 53 52 49 43 50 54
43 42 37 36 35 36 36 36 36 35 36 36 36 37 37 36 36 38 35 35 36 37 39 38 38 38 39 39 40 44 46 48 49 51 53 52 50 50 52 51 57 52 51 50 51
37 38 39 38 38 36 36 36 38 38 39 38 36 38 37 37 37 37 39 40 39 39 37 37 37 39 37 35 38 41 44 47 50 55 57 58 56 57 55 53 60 59 56 52 53
43 39 38 35 35 34 35 36 37 38 37 37 37 37 37 37 36 36 36 36 37 39 38 38 37 39 40 39 41 43 45 48 50 54 60 62 61 59 58 59 60 59 57 55 54
48 47 43 41 39 37 36 38 38 37 36 35 33 36 39 37 36 36 35 34 36 37 35 37 38 40 42 44 45 47 50 50 47 48 55 59 67 66 57 62 62 59 57 54 51
45 47 46 47 46 47 43 40 41 39 36 36 37 39 36 34 33 34 33 34 35 35 36 37 39 40 43 44 43 50 50 48 44 40 42 49 67 63 62 62 63 62 59 58 53
44 45 42 39 38 38 37 33 30 33 34 36 37 36 34 33 33 34 34 33 35 37 38 38 40 42 43 45 45 46 48 48 52 41 43 43 49 62 63 56 59 58 60 60 54
44 39 41 41 38 38 36 32 34 34 34 38 38 36 33 32 33 34 34 34 35 36 39 42 44 44 42 45 47 49 52 52 51 41 47 46 47 46 44 48 42 48 55 56 58
44 40 39 40 38 39 34 34 34 33 35 36 36 35 33 33 33 35 33 35 37 39 40 41 44 45 46 49 52 54 57 59 56 52 52 53 48 45 42 39 43 38 44 50 56
50 44 40 40 38 37 34 35 35 34 34 32 33 33 34 34 35 37 36 37 39 39 39 41 42 47 49 50 55 58 63 61 58 59 55 55 53 50 46 38 48 47 45 45 49
49 46 40 40 39 38 37 35 36 36 34 32 31 31 33 34 35 36 37 37 38 38 40 43 44 48 52 52 59 62 65 66 67 62 65 57 57 52 45 37 46 52 49 50 51
46 45 42 41 40 39 37 37 36 33 32 33 33 30 30 31 34 35 36 37 37 39 43 44 49 52 53 61 67 74 72 71 69 67 68 55 56 54 46 35 34 39 44 49 53
45 46 43 41 40 39 37 37 33 32 30 31 29 29 30 31 34 36 36 36 38 41 44 47 51 56 61 67 67 65 56 53 54 54 62 63 51 53 44 33 26 31 38 38 39
44 44 46 45 42 39 35 34 31 29 30 30 29 30 31 33 34 35 35 37 38 42 47 49 54 54 60 52 47 42 41 38 35 39 52 58 50 51 45 30 21 14 20 24 34
47 44 45 42 40 37 34 32 29 28 29 29 27 29 30 33 33 33 36 38 41 44 48 49 55 51 35 35 39 35 41 40 34 30 50 47 48 50 39 31 20 21 18 22 22
42 41 41 40 39 36 33 31 28 31 30 25 27 28 28 33 32 33 35 37 41 45 49 55 61 43 18 27 32 30 32 33 39 39 31 42 42 46 43 23 22 27 26 14 20
39 38 41 39 38 35 33 30 30 30 26 25 28 29 28 32 32 33 34 36 41 44 49 54 40 12 16 25 31 27 26 28 31 24 26 26 29 36 26 17 31 30 31 27 34
41 41 42 40 38 35 33 31 30 27 27 27 26 27 28 29 30 31 33 35 38 43 48 47 44 15 16 24 25 28 24 25 19 24 25 19 25 21 21 27 34 25 32 29 23
43 43 44 41 38 35 32 32 30 25 28 27 26 26 26 26 28 30 32 34 38 42 46 42 32 11 17 24 26 17 8 9 17 20 16 18 22 26 13 26 26 32 29 26 27
44 45 44 39 36 33 32 30 27 27 26 25 25 26 26 25 26 29 30 33 39 42 44 34 24 17 12 19 17 21 20 9 17 14 11 22 30 20 5 29 27 24 27 27 30
46 46 41 37 34 32 30 29 28 29 24 22 23 24 24 25 26 27 28 34 38 42 39 32 18 22 12 9 12 21 16 23 20 20 17 26 35 14 9 3 25 29 24 30 31
44 44 40 38 36 33 29 26 26 26 24 24 23 23 23 24 25 26 28 32 36 38 31 30 12 19 20 20 20 15 12 20 17 13 15 30 25 11 14 17 34 31 36 33 31
42 41 40 35 32 27 26 24 25 22 23 22 21 21 23 22 24 25 28 32 34 34 23 22 13 16 16 22 12 17 21 27 17 12 19 18 21 13 19 23 28 33 25 35 29
36 35 35 30 27 25 23 22 23 23 20 20 20 21 21 22 23 25 29 32 34 28 20 17 13 16 10 20 14 8 18 23 9 16 22 25 21 28 26 26 27 24 32 9 26
32 31 28 29 25 23 22 23 22 21 19 18 19 19 20 21 22 27 29 31 32 26 14 19 18 17 8 11 3 2 11 4 21 16 18 26 32 33 34 30 27 27 30 15 14
Wind_Direction
267 267 272 272 268 268 270 265 266 270 271 273 278 281 274 272 277 276 271 268 269 270 272 270 270 271 273 270 268 268 270 274 270 271 269 260 242 222 230 245 250 254 259 256 250
265 265 273 277 276 273 271 268 269 271 272 275 275 276 278 278 277 278 275 272 270 271 272 273 272 270 268 268 268 267 269 267 266 263 263 256 247 224 229 240 251 254 254 254 255
266 267 272 276 275 273 271 270 269 268 269 271 274 275 275 276 277 276 277 276 277 277 277 277 276 276 274 272 269 269 272 266 262 259 258 253 250 240 227 242 246 253 253 257 259
266 266 267 268 274 274 268 268 271 272 274 276 276 276 276 276 282 280 277 277 277 278 277 279 281 282 281 281 278 276 270 267 267 260 256 254 248 242 238 247 244 245 248 248 254
265 265 263 268 271 270 268 270 274 275 274 277 278 279 278 279 279 282 280 279 282 283 284 285 287 286 286 286 279 280 278 273 266 262 259 253 250 247 242 248 248 243 246 246 254
263 259 259 264 267 266 267 272 274 275 274 272 274 277 281 283 283 281 282 284 286 287 290 291 291 290 288 286 286 283 279 280 275 270 265 261 253 252 246 240 243 248 247 248 250
267 261 253 254 257 258 261 268 271 272 272 274 278 284 284 283 281 282 283 288 290 290 291 291 291 290 289 288 290 290 284 279 281 276 268 266 261 251 248 244 241 241 244 244 248
273 264 261 257 257 257 258 265 272 274 275 273 279 278 281 280 280 281 285 288 290 291 291 290 288 288 286 283 285 284 286 287 280 275 275 273 264 260 249 246 241 242 242 243 243
271 263 263 266 271 271 269 267 271 274 277 281 282 281 283 283 282 281 285 288 292 292 288 285 285 284 281 283 281 283 283 281 280 281 281 276 282 261 256 250 247 242 240 240 244
268 264 264 267 269 268 266 262 267 269 271 272 278 277 278 277 279 281 286 287 291 288 283 281 279 276 281 282 280 280 282 281 283 284 278 272 273 281 268 248 238 239 240 239 241
268 261 265 266 267 268 265 266 268 272 274 274 276 279 278 275 278 281 284 288 290 289 283 280 280 285 282 286 286 282 279 280 278 284 273 271 268 264 275 244 234 234 237 241 239
262 260 262 260 264 262 264 268 266 269 271 274 277 277 276 277 281 284 286 290 292 289 286 286 288 286 285 286 286 284 284 281 277 278 272 270 264 264 265 261 232 232 220 219 234
255 253 257 258 258 260 266 265 267 273 271 274 272 272 276 278 282 283 286 290 288 286 287 288 291 290 294 293 291 286 285 280 276 270 269 267 264 263 263 265 237 232 231 219 225
250 252 254 255 257 260 263 263 267 273 274 273 275 276 277 278 279 282 285 286 289 293 296 300 301 303 304 301 297 290 284 277 270 266 263 255 255 255 261 261 258 244 242 240 233
250 253 253 252 256 259 259 261 272 271 270 271 274 279 278 279 283 289 293 295 301 305 307 309 309 309 308 305 295 290 291 287 281 266 257 253 241 256 258 262 253 252 251 243 234
252 255 255 258 258 259 258 266 269 267 266 271 277 281 282 285 289 294 299 303 308 309 312 316 317 315 309 300 295 305 302 302 289 272 248 250 237 251 246 258 255 217 191 203 204
257 257 258 256 258 256 260 266 266 263 267 269 275 277 283 289 294 299 302 308 309 311 314 318 318 318 300 290 299 298 297 303 301 285 250 238 230 244 236 242 231 188 219 257 226
253 253 251 255 257 256 261 264 263 264 265 274 273 280 287 290 296 299 303 309 311 317 321 323 323 312 272 303 324 311 305 293 300 292 285 245 240 237 232 210 184 203 213 235 232
248 248 253 253 251 256 261 262 262 268 272 273 278 284 287 290 296 301 306 312 316 322 326 326 336 300 310 312 329 305 303 306 294 286 279 240 232 234 240 203 182 211 220 228 221
242 248 247 247 249 254 259 259 262 267 267 273 276 283 286 293 297 301 306 312 320 327 328 332 332 253 284 301 306 306 310 302 296 287 284 224 208 178 150 183 190 198 216 220 233
241 242 240 240 247 253 256 260 266 265 269 273 275 280 285 288 293 299 309 316 322 329 332 332 319 257 307 313 317 313 289 342 292 284 278 231 185 142 171 178 199 206 218 227 232
235 233 234 238 244 247 254 261 263 263 266 269 275 281 285 288 294 302 313 319 323 329 333 328 304 285 285 315 314 332 313 332 251 288 259 228 138 159 164 186 202 217 226 231 236
236 231 229 236 239 244 252 256 260 265 265 267 272 278 281 283 293 306 316 319 322 325 334 322 281 287 266 297 345 323 292 277 304 275 244 201 148 182 218 168 182 203 219 234 238
238 236 230 232 237 241 247 252 254 258 263 269 272 274 277 286 298 312 316 321 321 323 328 316 269 297 312 295 308 318 308 309 265 246 235 186 203 247 231 233 174 207 220 235 237
241 233 238 237 237 240 245 244 248 250 262 267 268 270 279 291 301 313 317 322 322 322 318 305 253 282 310 297 298 322 323 325 291 231 213 204 245 228 224 207 189 196 211 211 232
236 239 238 238 234 236 236 240 248 256 252 256 262 270 283 295 308 312 316 319 323 320 305 293 245 264 310 284 291 348 342 31 319 215 214 224 233 220 219 227 236 251 210 208 232
230 229 224 228 226 229 234 244 249 253 255 250 259 272 285 297 306 309 317 320 322 315 280 270 248 273 298 271 251 243 313 45 30 237 210 212 216 221 223 238 247 252 219 239 225